[[{"header":{"parameterUnit":"m.s-1","parameterCategory":2,"la1":30.2992,"la2":30.254,"lo1":-89.0895,"lo2":-89.0443,"dy":0.0025,"dx":0.0025,"nx":19,"ny":19,"refTime":"2026-03-08T21:00:00:Z","depth":"0","parameterNumber":2,"parameterNumberName":"U-component_of_CURRENTS"},"data":[0,0,0,0.223,0.2226,0.1909,0.1907,0.151,0.1507,0,0,0,0,0,0,0,0,0,0,0,0.2337,0.2337,0.2231,0.2225,0.1909,0.1907,0.151,0.1507,0,0,0,0,0,0,0,0,0,0,0,0.2338,0.2337,0.2336,0.2224,0.191,0.1907,0.1511,0.1733,0,0,0,0,0,0,0,0,0,0,0.2033,0.2149,0.2337,0.2336,0.2223,0.191,0.1907,0.1743,0.1719,0.1674,0,0.1659,0,0.1601,0.1486,0.1485,0,0,0,0.2165,0.2169,0.21,0.2335,0.2221,0.1911,0.2035,0.1729,0.1703,0.1643,0.1653,0.1638,0.1595,0.1484,0.1482,0.1335,0.1336,0,0,0.2183,0.225,0.2119,0.2085,0.2183,0.2046,0.2026,0.1712,0.1695,0.1652,0.1628,0.1588,0.1482,0.148,0.1334,0.1335,0,0,0,0.2273,0.2263,0.2198,0.2102,0.2059,0.2038,0.2015,0.1707,0.1692,0.1624,0.1583,0.148,0.1476,0.1333,0.1335,0.1445,0,0,0,0.2281,0.2319,0.2208,0.2239,0.2066,0.1879,0.2018,0.1713,0.1676,0.1585,0.148,0.1473,0.1333,0.1334,0.1441,0.1482,0,0,0,0.2344,0.2325,0.2306,0.2245,0.2136,0.1883,0.1844,0.1702,0.1654,0.1485,0.1472,0.1332,0.1334,0.1436,0.1475,0.1482,0,0,0,0.2395,0.2382,0.2308,0.2264,0.2141,0.197,0.1845,0.1695,0.1562,0.1478,0.1333,0.1334,0.1435,0.1471,0.1479,0.1416,0.1428,0,0,0.2409,0.2385,0.2355,0.2283,0.2171,0.2007,0.1875,0.1667,0.1576,0.1423,0.1418,0.1442,0.1475,0.1481,0.1516,0.1525,0,0,0,0.2378,0.2365,0.2313,0.2231,0.2092,0.1954,0.1756,0.1691,0.1565,0.1516,0.1446,0.1463,0.1464,0.1419,0.1426,0.128,0.1343,0.1342,0.1342,0.2468,0.2386,0.2321,0.2203,0.2102,0.1911,0.1816,0.1699,0.1597,0.1602,0.1557,0.1644,0.16,0.1604,0.1456,0.1564,0.1565,0.1565,0.1565,0.2463,0.2392,0.2326,0.2238,0.2117,0.2007,0.1847,0.1795,0.1715,0.1656,0.165,0.1544,0.1618,0.1457,0.1572,0.1571,0.157,0.157,0.1569,0.2472,0.2418,0.239,0.2279,0.2202,0.2062,0.1998,0.1903,0.1818,0.1821,0.1716,0.1712,0.1561,0.1808,0.1808,0.1808,0.1809,0.1809,0.1809,0.2449,0.2414,0.2385,0.2305,0.2265,0.2194,0.2076,0.2027,0.1912,0.1824,0.1822,0.1574,0.1716,0.1696,0.1813,0.1812,0.1812,0.1811,0.1811,0.2335,0.2387,0.2341,0.2323,0.2253,0.2215,0.2154,0.2042,0.1979,0.1924,0.1617,0.1799,0.1742,0.1734,0.1714,0.1828,0.1828,0.1828,0.1828,0.2279,0.2298,0.2268,0.2258,0.2235,0.2201,0.2123,0.2004,0.1762,0.1579,0.1544,0.1468,0.1474,0.1397,0.1396,0.1366,0.139,0.1389,0.1388,0.2172,0.2212,0.2177,0.2225,0.2216,0.2187,0.2078,0.1825,0.145,0.1357,0.1358,0.1377,0.1252,0.1273,0.1138,0.1149,0.1094,0,0]},{"header":{"parameterUnit":"m.s-1","parameterCategory":2,"la1":30.2992,"la2":30.254,"lo1":-89.0895,"lo2":-89.0443,"dy":0.0025,"dx":0.0025,"nx":19,"ny":19,"refTime":"2026-03-08T21:00:00:Z","depth":"0","parameterNumber":3,"parameterNumberName":"V-component_of_CURRENTS"},"data":[0,0,0,-0.0871,-0.0866,-0.0516,-0.0514,-0.0219,-0.0218,0,0,0,0,0,0,0,0,0,0,0,-0.0993,-0.0992,-0.0871,-0.0865,-0.0516,-0.0513,-0.0219,-0.0218,0,0,0,0,0,0,0,0,0,0,0,-0.0993,-0.0993,-0.0992,-0.0864,-0.0516,-0.0513,-0.022,-0.0429,0,0,0,0,0,0,0,0,0,0,-0.0742,-0.0863,-0.0993,-0.0992,-0.0863,-0.0517,-0.0513,-0.0436,-0.0416,-0.0444,0,-0.0431,0,-0.0353,-0.0208,-0.0208,0,0,0,-0.0794,-0.088,-0.0796,-0.0991,-0.0861,-0.0518,-0.0653,-0.0423,-0.04,-0.0418,-0.0426,-0.0413,-0.0348,-0.0207,-0.0207,-0.0102,-0.0102,0,0,-0.0814,-0.0907,-0.0812,-0.0784,-0.0828,-0.0665,-0.0644,-0.0407,-0.0407,-0.0424,-0.0405,-0.0344,-0.0206,-0.0205,-0.0102,-0.0102,0,0,0,-0.0917,-0.0922,-0.0837,-0.0798,-0.0741,-0.0657,-0.0632,-0.0415,-0.0392,-0.0401,-0.034,-0.0205,-0.0204,-0.0102,-0.0102,-0.0052,0,0,0,-0.0925,-0.0986,-0.0848,-0.0895,-0.0747,-0.0556,-0.0647,-0.0407,-0.0377,-0.0342,-0.0205,-0.0202,-0.0102,-0.0102,-0.0053,-0.0047,0,0,0,-0.0999,-0.0992,-0.0971,-0.0902,-0.0782,-0.0557,-0.0514,-0.0396,-0.0345,-0.0208,-0.0202,-0.0102,-0.0102,-0.0055,-0.0049,0.0095,0,0,0,-0.1074,-0.107,-0.0975,-0.0953,-0.0787,-0.0586,-0.0513,-0.0345,-0.023,-0.0205,-0.0102,-0.0102,-0.0055,-0.005,0.0092,0.0212,0.0237,0,0,-0.1109,-0.1077,-0.1062,-0.0968,-0.0824,-0.0626,-0.0443,-0.0274,-0.0243,-0.0179,-0.0173,-0.0053,-0.0049,0.0095,0.022,0.0246,0,0,0,-0.1098,-0.1084,-0.1023,-0.0925,-0.0753,-0.0539,-0.0344,-0.0256,-0.0127,-0.0188,-0.0064,-0.0064,0.0027,0.0091,0.011,0.0093,-0.0101,-0.0101,-0.0101,-0.1239,-0.1133,-0.1063,-0.0895,-0.0762,-0.0463,-0.0285,-0.0143,-0.0115,-0.0068,-0.003,0.0095,0.016,0.0177,0.0156,-0.0031,-0.0031,-0.0031,-0.0031,-0.1263,-0.1198,-0.1076,-0.0967,-0.0749,-0.0582,-0.0264,-0.0157,0.0074,0.0014,0.0102,0.0127,0.0203,0.0172,-0.0028,-0.0028,-0.0029,-0.0029,-0.0029,-0.1315,-0.1254,-0.1208,-0.104,-0.0874,-0.0622,-0.0338,-0.0119,0.0062,0.0187,0.0323,0.0323,0.0311,0.0257,0.0257,0.0258,0.0259,0.0259,0.0259,-0.1353,-0.1288,-0.1222,-0.1081,-0.0981,-0.0765,-0.035,-0.0092,0.0257,0.0384,0.0386,0.0349,0.0184,0.019,0.027,0.0268,0.0266,0.0266,0.0265,-0.1302,-0.131,-0.1203,-0.1125,-0.0888,-0.0597,-0.031,0.0259,0.0511,0.071,0.0636,0.0535,0.055,0.0533,0.0548,0.0716,0.0716,0.0716,0.0716,-0.128,-0.1275,-0.112,-0.0983,-0.0772,-0.0483,0.0133,0.0582,0.0855,0.0888,0.0808,0.0736,0.0719,0.0737,0.0716,0.073,0.0941,0.0941,0.0941,-0.1205,-0.1182,-0.1053,-0.0937,-0.0699,-0.0285,0.0364,0.0902,0.1046,0.094,0.0762,0.0753,0.0628,0.0603,0.0607,0.0579,0.0594,0,0]}],[{"header":{"parameterUnit":"m.s-1","parameterCategory":2,"la1":30.2992,"la2":30.254,"lo1":-89.0895,"lo2":-89.0443,"dy":0.0025,"dx":0.0025,"nx":19,"ny":19,"refTime":"2026-03-08T21:00:00:Z","depth":"2","parameterNumber":2,"parameterNumberName":"U-component_of_CURRENTS"},"data":[0,0,0,0.0629,0.0629,0.0684,0.0685,0.0847,0.0849,0,0,0,0,0,0,0,0,0,0,0,0.0624,0.0624,0.0629,0.0629,0.0684,0.0685,0.0847,0.0849,0,0,0,0,0,0,0,0,0,0,0,0.0624,0.0624,0.0625,0.063,0.0684,0.0685,0.0847,0.0787,0,0,0,0,0,0,0,0,0,0,0.0724,0.0716,0.0624,0.0625,0.063,0.0684,0.0685,0.0783,0.0791,0.0842,0,0.0848,0,0.084,0.086,0.086,0,0,0,0.0649,0.071,0.0702,0.0625,0.063,0.0684,0.0665,0.0787,0.0795,0.0853,0.085,0.0855,0.0843,0.0861,0.0862,0.1009,0.101,0,0,0.0646,0.066,0.0696,0.0707,0.0642,0.0663,0.0666,0.0791,0.0815,0.085,0.0858,0.0845,0.0862,0.0863,0.1009,0.1009,0,0,0,0.0624,0.0659,0.0647,0.0702,0.0698,0.0664,0.0668,0.081,0.08,0.0859,0.0847,0.0863,0.0865,0.1008,0.1009,0.1021,0,0,0,0.0623,0.0643,0.0646,0.0659,0.0694,0.0745,0.0685,0.0792,0.0804,0.0846,0.0863,0.0867,0.1008,0.1009,0.1019,0.1011,0,0,0,0.0622,0.0644,0.0644,0.0659,0.0669,0.0742,0.0741,0.0794,0.0797,0.0861,0.0867,0.1008,0.1009,0.1018,0.101,0.1037,0,0,0,0.0644,0.0656,0.0645,0.0659,0.0668,0.0702,0.074,0.0797,0.0851,0.0864,0.1008,0.1009,0.1018,0.1009,0.1036,0.1015,0.1018,0,0,0.0664,0.0659,0.0662,0.0652,0.0669,0.0695,0.0757,0.0846,0.0882,0.0976,0.0979,0.102,0.101,0.1037,0.1065,0.1066,0,0,0,0.067,0.0674,0.0677,0.0686,0.0703,0.0749,0.0818,0.0865,0.0959,0.0913,0.1034,0.1028,0.1044,0.103,0.1031,0.1013,0.1013,0.1013,0.1013,0.0743,0.0717,0.0732,0.0717,0.0745,0.0809,0.0862,0.0941,0.098,0.1024,0.1048,0.109,0.1075,0.1076,0.1068,0.1069,0.1069,0.1069,0.1069,0.0775,0.0779,0.0766,0.0771,0.0802,0.0864,0.0939,0.0978,0.1069,0.1078,0.1095,0.1056,0.1078,0.107,0.107,0.1069,0.1069,0.1069,0.1069,0.0832,0.0824,0.0824,0.0832,0.0877,0.0912,0.0973,0.1029,0.1077,0.11,0.1103,0.1102,0.1089,0.1122,0.1122,0.1122,0.1123,0.1123,0.1123,0.089,0.0879,0.0889,0.0896,0.0906,0.0951,0.1007,0.1036,0.108,0.1109,0.1109,0.1108,0.1106,0.1093,0.1124,0.1124,0.1124,0.1124,0.1123,0.092,0.0932,0.0929,0.0933,0.0942,0.0927,0.0986,0.1019,0.1072,0.1084,0.112,0.1119,0.1113,0.1111,0.1099,0.113,0.113,0.113,0.113,0.0948,0.095,0.094,0.0929,0.093,0.0907,0.0882,0.0931,0.1011,0.1043,0.1047,0.1022,0.1024,0.1011,0.1012,0.0996,0.1001,0.1001,0.1,0.0948,0.0939,0.0934,0.0923,0.0898,0.0849,0.0785,0.0792,0.0879,0.0993,0.1,0.1126,0.1098,0.1098,0.1085,0.1084,0.1061,0,0]},{"header":{"parameterUnit":"m.s-1","parameterCategory":2,"la1":30.2992,"la2":30.254,"lo1":-89.0895,"lo2":-89.0443,"dy":0.0025,"dx":0.0025,"nx":19,"ny":19,"refTime":"2026-03-08T21:00:00:Z","depth":"2","parameterNumber":3,"parameterNumberName":"V-component_of_CURRENTS"},"data":[0,0,0,0.0558,0.0557,0.0488,0.0488,0.0427,0.0427,0,0,0,0,0,0,0,0,0,0,0,0.0582,0.0581,0.0558,0.0557,0.0488,0.0488,0.0427,0.0427,0,0,0,0,0,0,0,0,0,0,0,0.0582,0.0581,0.0581,0.0556,0.0488,0.0488,0.0427,0.047,0,0,0,0,0,0,0,0,0,0,0.0532,0.055,0.0581,0.0581,0.0556,0.0488,0.0488,0.0472,0.0467,0.0469,0,0.0462,0,0.0448,0.0424,0.0424,0,0,0,0.0547,0.0553,0.0541,0.0581,0.0556,0.0488,0.0516,0.0469,0.0464,0.0463,0.0461,0.0459,0.0447,0.0424,0.0424,0.0426,0.0426,0,0,0.0551,0.0562,0.0544,0.0538,0.0544,0.0519,0.0514,0.0466,0.0461,0.0461,0.0457,0.0446,0.0423,0.0423,0.0425,0.0426,0,0,0,0.0568,0.0565,0.0552,0.0541,0.0528,0.0517,0.0512,0.0462,0.046,0.0456,0.0445,0.0423,0.0423,0.0425,0.0425,0.0473,0,0,0,0.057,0.0575,0.0554,0.0559,0.0529,0.049,0.051,0.0463,0.0457,0.0445,0.0423,0.0422,0.0425,0.0425,0.0471,0.0511,0,0,0,0.0584,0.0576,0.0572,0.056,0.0535,0.049,0.0484,0.0461,0.0451,0.0424,0.0422,0.0424,0.0425,0.0469,0.0507,0.0511,0,0,0,0.0592,0.0598,0.0572,0.0578,0.0535,0.0527,0.0484,0.0466,0.0448,0.0423,0.0425,0.0425,0.0468,0.0505,0.0509,0.0521,0.0531,0,0,0.0609,0.0599,0.0607,0.0583,0.0589,0.0535,0.0538,0.0492,0.046,0.044,0.044,0.0471,0.0507,0.051,0.0565,0.0573,0,0,0,0.0619,0.0622,0.0621,0.0616,0.06,0.0589,0.0536,0.0517,0.0489,0.0453,0.0473,0.0495,0.0495,0.0498,0.0506,0.0429,0.0429,0.0429,0.0429,0.0622,0.0631,0.0649,0.0655,0.0653,0.0619,0.0611,0.0575,0.0528,0.0527,0.0534,0.0574,0.0579,0.0584,0.0524,0.0524,0.0524,0.0524,0.0524,0.0658,0.0674,0.0684,0.0706,0.0697,0.0694,0.0678,0.0646,0.0624,0.0585,0.0581,0.055,0.0595,0.0528,0.0527,0.0527,0.0527,0.0526,0.0526,0.0666,0.0681,0.0691,0.0727,0.0745,0.0739,0.0779,0.0742,0.0683,0.0685,0.0648,0.0647,0.06,0.066,0.066,0.0661,0.0661,0.0661,0.0661,0.067,0.069,0.0719,0.0752,0.0779,0.0821,0.083,0.0828,0.0771,0.0717,0.0716,0.0619,0.0615,0.0607,0.0664,0.0664,0.0663,0.0663,0.0663,0.0702,0.0697,0.0749,0.0781,0.086,0.0935,0.094,0.0912,0.0873,0.0835,0.0725,0.0722,0.0706,0.07,0.0694,0.077,0.077,0.077,0.077,0.0715,0.0719,0.0789,0.0853,0.0941,0.0996,0.1037,0.0966,0.086,0.0787,0.0786,0.0759,0.0754,0.0738,0.0731,0.0724,0.0809,0.0809,0.0809,0.0749,0.0761,0.0814,0.0866,0.0979,0.1065,0.1072,0.095,0.0799,0.0809,0.0778,0.0775,0.0731,0.0726,0.0695,0.0686,0.0672,0,0]}],[{"header":{"parameterUnit":"m.s-1","parameterCategory":2,"la1":30.2992,"la2":30.254,"lo1":-89.0895,"lo2":-89.0443,"dy":0.0025,"dx":0.0025,"nx":19,"ny":19,"refTime":"2026-03-08T21:00:00:Z","depth":"4","parameterNumber":2,"parameterNumberName":"U-component_of_CURRENTS"},"data":[0,0,0,0.0265,0.0267,0.0397,0.0397,0.0538,0.0539,0,0,0,0,0,0,0,0,0,0,0,0.0218,0.0218,0.0265,0.0268,0.0396,0.0397,0.0537,0.0539,0,0,0,0,0,0,0,0,0,0,0,0.0217,0.0218,0.0219,0.0268,0.0396,0.0397,0.0537,0.0449,0,0,0,0,0,0,0,0,0,0,0.0328,0.0279,0.0218,0.0219,0.0269,0.0396,0.0397,0.0445,0.0454,0.0469,0,0.0482,0,0.051,0.0546,0.0547,0,0,0,0.0279,0.0272,0.0309,0.0219,0.027,0.0396,0.0342,0.045,0.0461,0.0481,0.0484,0.049,0.0512,0.0547,0.0548,0.0652,0.0652,0,0,0.0272,0.0242,0.0301,0.0315,0.0295,0.0337,0.0345,0.0457,0.0462,0.0485,0.0493,0.0514,0.0548,0.0549,0.0651,0.0652,0,0,0,0.0244,0.0237,0.0272,0.0309,0.0332,0.0341,0.035,0.0458,0.047,0.0495,0.0516,0.0549,0.055,0.0651,0.0651,0.0664,0,0,0,0.024,0.022,0.0269,0.0253,0.033,0.0399,0.0348,0.0462,0.0476,0.0515,0.0549,0.0551,0.0651,0.0651,0.0663,0.0663,0,0,0,0.0213,0.0218,0.023,0.0251,0.0302,0.0398,0.0417,0.0466,0.0488,0.0547,0.0552,0.0651,0.0651,0.0662,0.0662,0.0712,0,0,0,0.0182,0.02,0.0229,0.0261,0.0301,0.0383,0.0417,0.049,0.054,0.0549,0.0651,0.0651,0.0661,0.0661,0.071,0.0601,0,0,0,0.0188,0.02,0.0221,0.025,0.0317,0.0367,0.0443,0.0523,0.0553,0.0614,0.0617,0.0663,0.0662,0.0711,0.0639,0,0,0,0,0.0213,0.0226,0.0252,0.0298,0.0361,0.0428,0.0504,0.0542,0.0619,0.0584,0.0673,0.0671,0.0703,0.0635,0.0655,0.0654,0.0654,0.0654,0.0654,0.0184,0.0228,0.0269,0.0331,0.0383,0.0481,0.0541,0.0606,0.0632,0.0667,0.0689,0.0742,0.0671,0.07,0.07,0.07,0.07,0.07,0.07,0.0198,0.0226,0.0281,0.0336,0.0408,0.0476,0.0585,0.0625,0.072,0.0713,0.0743,0.066,0.0701,0.0701,0.0701,0.0701,0.0701,0.07,0.07,0.0183,0.0203,0.024,0.0318,0.0394,0.0484,0.0573,0.0657,0.0726,0.0765,0.0724,0.0764,0.0757,0.0796,0.0796,0.0796,0.0797,0.0797,0.0797,0.0152,0.0192,0.0224,0.0307,0.035,0.0439,0.0581,0.0646,0.0735,0.0729,0.0782,0.0775,0.0772,0.0764,0.08,0.08,0.0799,0.0799,0.0799,0.0143,0.0157,0.0198,0.0234,0.033,0.0392,0.0525,0.0633,0.0705,0.0731,0.0721,0.0724,0.0716,0.0715,0.0704,0.0725,0.0723,0.0722,0,0.0123,0.0138,0.0171,0.0207,0.0268,0.036,0.0436,0.0533,0.0626,0.0595,0.0702,0.0686,0.0688,0.0674,0.0671,0.0654,0,0,0,0.0117,0.0126,0.0136,0.0173,0.023,0.0341,0.0456,0.0477,0.06,0.0643,0.0691,0.0699,0.0746,0.0811,0.0807,0.0803,0.0789,0,0]},{"header":{"parameterUnit":"m.s-1","parameterCategory":2,"la1":30.2992,"la2":30.254,"lo1":-89.0895,"lo2":-89.0443,"dy":0.0025,"dx":0.0025,"nx":19,"ny":19,"refTime":"2026-03-08T21:00:00:Z","depth":"4","parameterNumber":3,"parameterNumberName":"V-component_of_CURRENTS"},"data":[0,0,0,0.0573,0.0573,0.054,0.054,0.0546,0.0546,0,0,0,0,0,0,0,0,0,0,0,0.0594,0.0594,0.0573,0.0572,0.054,0.054,0.0546,0.0546,0,0,0,0,0,0,0,0,0,0,0,0.0594,0.0594,0.0594,0.0572,0.054,0.054,0.0546,0.0557,0,0,0,0,0,0,0,0,0,0,0.0582,0.0598,0.0594,0.0594,0.0572,0.054,0.054,0.0557,0.0557,0.0575,0,0.0579,0,0.0562,0.0548,0.0548,0,0,0,0.0569,0.0599,0.0588,0.0594,0.0572,0.054,0.0554,0.0557,0.0556,0.0574,0.0579,0.0579,0.0562,0.0548,0.0548,0.0591,0.0591,0,0,0.057,0.0589,0.0589,0.0588,0.0577,0.0555,0.0553,0.0556,0.0563,0.0579,0.0578,0.0562,0.0548,0.0548,0.0591,0.0591,0,0,0,0.0578,0.059,0.0578,0.0588,0.0578,0.0554,0.0552,0.0563,0.0559,0.0578,0.0562,0.0548,0.0549,0.059,0.0591,0.0612,0,0,0,0.0579,0.0595,0.0579,0.059,0.0578,0.0564,0.0559,0.0559,0.0558,0.0562,0.0548,0.0549,0.059,0.0591,0.0611,0.0625,0,0,0,0.0593,0.0596,0.0595,0.0591,0.0577,0.0563,0.0558,0.0558,0.0549,0.0548,0.0549,0.059,0.059,0.061,0.0623,0.0611,0,0,0,0.0607,0.0617,0.0596,0.0607,0.0577,0.0573,0.0558,0.0558,0.056,0.0548,0.059,0.0591,0.061,0.0622,0.061,0.0576,0,0,0,0.0625,0.062,0.0626,0.0606,0.0608,0.0576,0.0587,0.0583,0.0576,0.0591,0.0592,0.0611,0.0623,0.061,0.0614,0,0,0,0,0.0634,0.064,0.0638,0.0636,0.0623,0.0619,0.0603,0.06,0.0607,0.058,0.0618,0.0625,0.0616,0.0595,0.0594,0.0594,0.0594,0.0594,0.0594,0.0669,0.0661,0.0673,0.0665,0.0667,0.0651,0.0648,0.0643,0.0633,0.0642,0.0648,0.0662,0.0641,0.0651,0.0651,0.0651,0.0651,0.0651,0.0651,0.069,0.069,0.0698,0.0707,0.0705,0.0716,0.0703,0.0691,0.0683,0.0677,0.0667,0.0626,0.0653,0.0653,0.0653,0.0652,0.0652,0.0652,0.0652,0.0698,0.0696,0.0714,0.0734,0.0759,0.0756,0.0764,0.0746,0.0711,0.0704,0.0659,0.0671,0.0662,0.069,0.069,0.069,0.069,0.069,0.069,0.0689,0.0705,0.0729,0.076,0.0787,0.0807,0.0801,0.0777,0.0734,0.0684,0.0706,0.0674,0.0673,0.0664,0.069,0.069,0.069,0.069,0.069,0.0672,0.0693,0.0727,0.0759,0.0818,0.0832,0.0838,0.0762,0.0726,0.0669,0.0661,0.0662,0.0646,0.0646,0.0634,0.0653,0.0653,0.0653,0,0.0659,0.0671,0.072,0.0773,0.0813,0.0841,0.0792,0.0755,0.0687,0.0677,0.0719,0.0714,0.0713,0.0699,0.0697,0.0687,0,0,0,0.0643,0.0664,0.0695,0.0759,0.0811,0.0781,0.0774,0.0735,0.0709,0.0649,0.0644,0.0646,0.0696,0.0691,0.0669,0.0668,0.0651,0,0]}]]